timestamp,surface_pressure_avg,surface_temp_avg,battery_voltage,lat,long
2022-12-16 00:09:00+00:00,246.7198,4.34,12.41,47.84626,-54.09684
2022-12-16 00:19:01+00:00,247.4597,4.35,12.41,47.84626,-54.09684
2022-12-16 00:29:01+00:00,247.303,4.35,12.41,47.84626,-54.09684
2022-12-16 00:39:01+00:00,247.7831,4.34,12.41,47.84626,-54.09684
2022-12-16 00:49:01+00:00,249.4564,4.34,12.41,47.84626,-54.09684
2022-12-16 00:59:01+00:00,253.1764,4.3,12.41,47.84626,-54.09684
2022-12-16 01:09:01+00:00,253.1497,4.3,12.41,47.84626,-54.09684
2022-12-16 01:19:00+00:00,249.6281,4.3,12.41,47.84626,-54.09684
2022-12-16 01:29:00+00:00,253.3181,4.3,12.41,47.84626,-54.09684
2022-12-16 01:39:00+00:00,262.5031,4.3,12.41,47.84626,-54.09684
2022-12-16 01:49:00+00:00,266.0914,4.3,12.41,47.84626,-54.09684
2022-12-16 01:59:00+00:00,266.4964,4.3,12.41,47.84626,-54.09684
2022-12-16 02:09:00+00:00,269.9348,4.3,12.41,47.84626,-54.09684
2022-12-16 02:19:00+00:00,275.973,4.29,12.41,47.84626,-54.09684
2022-12-16 02:29:00+00:00,281.8763,4.3,12.41,47.84626,-54.09684
2022-12-16 02:39:00+00:00,288.9581,4.3,12.41,47.84626,-54.09684
2022-12-16 02:49:00+00:00,294.883,4.3,12.41,47.84626,-54.09684
2022-12-16 02:59:00+00:00,300.9047,4.3,12.41,47.84626,-54.09684
2022-12-16 03:09:00+00:00,301.6064,4.3,12.41,47.84626,-54.09684
2022-12-16 03:19:00+00:00,303.803,4.3,12.41,47.84626,-54.09684
2022-12-16 03:29:00+00:00,307.713,4.38,12.41,47.84626,-54.09684
2022-12-16 03:39:00+00:00,312.2729,4.4,12.41,47.84626,-54.09684
2022-12-16 03:49:00+00:00,314.2164,4.3,12.41,47.84626,-54.09684
2022-12-16 03:59:00+00:00,315.6813,4.3,12.41,47.84626,-54.09684
2022-12-16 04:09:00+00:00,316.0763,4.3,12.41,47.84626,-54.09684
2022-12-16 04:19:00+00:00,316.0431,4.3,12.41,47.84626,-54.09684
2022-12-16 04:29:00+00:00,313.7762,4.3,12.41,47.84626,-54.09684
2022-12-16 04:39:00+00:00,315.7479,4.3,12.41,47.84626,-54.09684
2022-12-16 04:49:00+00:00,319.3646,4.29,12.41,47.84626,-54.09684
2022-12-16 04:59:00+00:00,317.658,4.3,12.41,47.84626,-54.09684
2022-12-16 05:09:00+00:00,316.2531,4.3,12.41,47.84626,-54.09684
2022-12-16 05:19:01+00:00,319.053,4.3,12.41,47.84626,-54.09684
2022-12-16 05:29:01+00:00,317.1213,4.3,12.41,47.84626,-54.09684
2022-12-16 05:39:01+00:00,313.6897,4.22,12.41,47.84626,-54.09684
2022-12-16 05:49:01+00:00,317.608,4.26,12.41,47.84626,-54.09684
2022-12-16 05:59:01+00:00,322.298,4.2,12.41,47.84626,-54.09684
2022-12-16 06:09:01+00:00,314.4014,4.25,12.41,47.84626,-54.09684
2022-12-16 06:19:01+00:00,309.7963,4.3,12.41,47.84626,-54.09684
2022-12-16 06:29:01+00:00,313.1613,4.27,12.41,47.84626,-54.09684
2022-12-16 06:39:01+00:00,312.3963,4.3,12.41,47.84626,-54.09684
2022-12-16 06:49:01+00:00,306.8097,4.3,12.41,47.84626,-54.09684
2022-12-16 06:59:01+00:00,304.8547,4.3,12.41,47.84626,-54.09684
2022-12-16 07:09:01+00:00,300.8364,4.29,12.41,47.84626,-54.09684
2022-12-16 07:19:00+00:00,294.1764,4.26,12.41,47.84626,-54.09684
2022-12-16 07:29:00+00:00,290.1381,4.24,12.41,47.84626,-54.09684
2022-12-16 07:39:00+00:00,286.6547,4.23,12.41,47.84626,-54.09684
2022-12-16 07:49:00+00:00,280.1364,4.2,12.41,47.84626,-54.09684
2022-12-16 07:59:00+00:00,275.1381,4.2,12.41,47.84626,-54.09684
2022-12-16 08:09:00+00:00,270.8748,4.2,12.41,47.84626,-54.09684
2022-12-16 08:19:01+00:00,264.0331,4.2,12.41,47.84626,-54.09684
2022-12-16 08:29:01+00:00,257.9414,4.2,12.41,47.84626,-54.09684
2022-12-16 08:39:01+00:00,255.4714,4.2,12.41,47.84626,-54.09684
2022-12-16 08:49:01+00:00,253.6147,4.2,12.41,47.84626,-54.09684
2022-12-16 08:59:01+00:00,248.2981,4.2,12.41,47.84626,-54.09684
2022-12-16 09:09:01+00:00,246.3031,4.2,12.41,47.84626,-54.09684
2022-12-16 09:19:00+00:00,245.8097,4.2,12.41,47.84626,-54.09684
2022-12-16 09:29:00+00:00,242.7398,4.2,12.41,47.84626,-54.09684
2022-12-16 09:39:00+00:00,239.6481,4.2,12.41,47.84626,-54.09684
2022-12-16 09:49:00+00:00,239.5531,4.2,12.41,47.84626,-54.09684
2022-12-16 09:59:00+00:00,239.3748,4.2,12.41,47.84626,-54.09684
2022-12-16 10:09:00+00:00,238.5747,4.2,12.41,47.84626,-54.09684
2022-12-16 10:19:01+00:00,237.7915,4.2,12.41,47.84626,-54.09684
2022-12-16 10:29:01+00:00,237.0381,4.2,12.41,47.84626,-54.09684
2022-12-16 10:39:01+00:00,236.4198,4.2,12.41,47.84626,-54.09684
2022-12-16 10:49:01+00:00,239.4581,4.2,12.41,47.84626,-54.09684
2022-12-16 10:59:01+00:00,240.8681,4.2,12.41,47.84626,-54.09684
2022-12-16 11:09:01+00:00,237.8798,4.19,12.41,47.84626,-54.09684
2022-12-16 11:19:00+00:00,236.9564,4.2,12.33,47.84626,-54.09684
2022-12-16 11:29:00+00:00,240.5681,4.2,12.33,47.84626,-54.09684
2022-12-16 11:39:00+00:00,240.8231,4.18,12.33,47.84626,-54.09684
2022-12-16 11:49:00+00:00,236.9048,4.17,12.33,47.84626,-54.09684
2022-12-16 11:59:00+00:00,239.3564,4.19,12.33,47.84626,-54.09684
2022-12-16 12:09:00+00:00,247.4097,4.18,12.33,47.84626,-54.09684
2022-12-16 12:19:00+00:00,252.0364,4.18,12.41,47.84626,-54.09684
2022-12-16 12:29:00+00:00,252.5098,4.27,12.41,47.84626,-54.09684
2022-12-16 12:39:00+00:00,255.7931,4.3,12.41,47.84626,-54.09684
2022-12-16 12:49:00+00:00,260.6898,4.27,12.41,47.84626,-54.09684
2022-12-16 12:59:00+00:00,262.3131,4.2,12.41,47.84626,-54.09684
2022-12-16 13:09:00+00:00,263.8465,4.2,12.41,47.84626,-54.09684
2022-12-16 13:19:00+00:00,267.0364,4.2,12.41,47.84626,-54.09684
2022-12-16 13:29:00+00:00,267.5497,4.1,12.41,47.84626,-54.09684
2022-12-16 13:39:00+00:00,267.6347,4.1,12.41,47.84626,-54.09684
2022-12-16 13:49:00+00:00,270.1131,4.1,12.41,47.84626,-54.09684
2022-12-16 13:59:00+00:00,272.9297,4.1,12.41,47.84626,-54.09684
2022-12-16 14:09:00+00:00,274.3014,4.1,12.41,47.84626,-54.09684
2022-12-16 14:19:00+00:00,279.0431,4.13,12.57,47.84626,-54.09684
2022-12-16 14:29:00+00:00,286.433,4.19,12.57,47.84626,-54.09684
2022-12-16 14:39:00+00:00,288.9831,4.19,12.57,47.84626,-54.09684
2022-12-16 14:49:00+00:00,289.4114,4.2,12.57,47.84626,-54.09684
2022-12-16 14:59:00+00:00,293.8963,4.2,12.57,47.84626,-54.09684
2022-12-16 15:09:00+00:00,298.8664,4.18,12.57,47.84626,-54.09684
2022-12-16 15:19:01+00:00,297.2964,4.2,12.73,47.84626,-54.09684
2022-12-16 15:29:01+00:00,298.503,4.2,12.73,47.84626,-54.09684
2022-12-16 15:39:01+00:00,305.828,4.2,12.73,47.84626,-54.09684
2022-12-16 15:49:01+00:00,306.4846,4.2,12.73,47.84626,-54.09684
2022-12-16 15:59:01+00:00,304.1913,4.2,12.73,47.84626,-54.09684
2022-12-16 16:09:01+00:00,311.513,4.2,12.73,47.84626,-54.09684
2022-12-16 16:19:00+00:00,320.7346,4.28,12.73,47.84626,-54.09684
2022-12-16 16:29:00+00:00,320.3347,4.2,12.73,47.84626,-54.09684
2022-12-16 16:39:00+00:00,317.5263,4.23,12.73,47.84626,-54.09684
2022-12-16 16:49:00+00:00,321.2896,4.2,12.73,47.84626,-54.09684
2022-12-16 16:59:00+00:00,323.0696,4.2,12.73,47.84626,-54.09684
2022-12-16 17:09:00+00:00,321.6013,4.2,12.73,47.84626,-54.09684
2022-12-16 17:19:00+00:00,318.923,4.2,12.65,47.84626,-54.09684
2022-12-16 17:29:00+00:00,320.8663,4.2,12.65,47.84626,-54.09684
2022-12-16 17:39:00+00:00,321.1514,4.2,12.65,47.84626,-54.09684
2022-12-16 17:49:00+00:00,319.4896,4.2,12.65,47.84626,-54.09684
2022-12-16 17:59:00+00:00,320.723,4.21,12.65,47.84626,-54.09684
2022-12-16 18:09:00+00:00,322.0097,4.28,12.65,47.84626,-54.09684
2022-12-16 18:19:00+00:00,321.6279,4.29,12.57,47.84626,-54.09684
2022-12-16 18:29:00+00:00,321.1963,4.3,12.57,47.84626,-54.09684
2022-12-16 18:39:00+00:00,323.073,4.3,12.57,47.84626,-54.09684
2022-12-16 18:49:00+00:00,318.8046,4.3,12.57,47.84626,-54.09684
2022-12-16 18:59:00+00:00,312.6097,4.3,12.57,47.84626,-54.09684
2022-12-16 19:09:00+00:00,312.7996,4.3,12.57,47.84626,-54.09684
2022-12-16 19:19:00+00:00,312.8964,4.3,12.41,47.84626,-54.09684
2022-12-16 19:29:00+00:00,304.498,4.29,12.41,47.84626,-54.09684
2022-12-16 19:39:00+00:00,298.4147,4.27,12.41,47.84626,-54.09684
2022-12-16 19:49:00+00:00,297.958,4.29,12.41,47.84626,-54.09684
2022-12-16 19:59:00+00:00,291.9597,4.29,12.41,47.84626,-54.09684
2022-12-16 20:09:00+00:00,282.398,4.24,12.41,47.84626,-54.09684
2022-12-16 20:19:00+00:00,279.4397,4.39,12.41,47.84626,-54.09684
2022-12-16 20:29:00+00:00,276.6897,4.3,12.41,47.84626,-54.09684
2022-12-16 20:39:00+00:00,267.9998,4.26,12.41,47.84626,-54.09684
2022-12-16 20:49:00+00:00,262.9681,4.35,12.41,47.84626,-54.09684
2022-12-16 20:59:00+00:00,262.9998,4.4,12.41,47.84626,-54.09684
2022-12-16 21:09:00+00:00,259.9898,4.36,12.41,47.84626,-54.09684
2022-12-16 21:19:00+00:00,251.8931,4.3,12.33,47.84626,-54.09684
2022-12-16 21:29:00+00:00,251.8831,4.3,12.33,47.84626,-54.09684
2022-12-16 21:39:00+00:00,251.2798,4.3,12.33,47.84626,-54.09684
2022-12-16 21:49:00+00:00,245.5797,4.29,12.33,47.84626,-54.09684
2022-12-16 21:59:00+00:00,241.7031,4.2,12.33,47.84626,-54.09684
2022-12-16 22:09:00+00:00,245.7814,4.3,12.33,47.84626,-54.09684
2022-12-16 22:19:01+00:00,242.8948,4.3,12.33,47.84626,-54.09684
2022-12-16 22:29:01+00:00,236.3947,4.21,12.33,47.84626,-54.09684
2022-12-16 22:39:01+00:00,237.3631,4.4,12.33,47.84626,-54.09684
2022-12-16 22:49:01+00:00,241.3298,4.3,12.33,47.84626,-54.09684
2022-12-16 22:59:01+00:00,237.2864,4.2,12.33,47.84626,-54.09684
2022-12-16 23:09:01+00:00,234.6898,4.32,12.33,47.84626,-54.09684
2022-12-16 23:19:00+00:00,235.6481,4.4,12.33,47.84626,-54.09684
2022-12-16 23:29:00+00:00,233.3264,4.22,12.33,47.84626,-54.09684
2022-12-16 23:39:00+00:00,228.1664,4.24,12.33,47.84626,-54.09684
2022-12-16 23:49:00+00:00,227.7631,4.3,12.33,47.84626,-54.09684
2022-12-16 23:59:00+00:00,226.1064,4.29,12.33,47.84626,-54.09684
